Weather History for Hattiesburg, MS

Change the Weather History Date:

Saturday, February 16, 2013

  Actual Average Record
Temperature  
Mean Temperature 42 °F 52 °F  
Max Temperature 52 °F 64 °F 84 °F (1989)
Min Temperature 32 °F 40 °F 19 °F (1958)
Degree Days  
Heating Degree Days 23 13  
Month to date heating degree days 172 240  
Since 1 July heating degree days 1251 1539  
Cooling Degree Days 0 0  
Month to date cooling degree days 0 0  
Year to date cooling degree days 28 6  
Moisture  
Dew Point 23 °F    
Average Humidity 48    
Maximum Humidity 75    
Minimum Humidity 21    
Precipitation  
Precipitation 0.00 in 0.21 in 2.85 in (1949)
Month to date precipitation 7.43 2.99  
Year to date precipitation 15.36 8.73  
Sea Level Pressure  
Sea Level Pressure 30.23 in    
Wind  
Wind Speed 9 mph (NW)    
Max Wind Speed 24 mph    
Max Gust Speed 35 mph    
Visibility 10 miles    
Events      
T = Trace of Precipitation, MM = Missing Value Source: NWS Daily Summary

Daily Weather History Graph

Daily Weather History Graph

Search for Another Location

Airport:

Trip Planner

Search our weather history database for the weather conditions in past years. The results will help you decide how hot, cold, wet, or windy it might be!

Date:

Astronomy

Feb. 16, 2013 Rise Set
Actual Time 6:37 AM CST 5:45 PM CST
Civil Twilight 6:12 AM CST 6:10 PM CST
Nautical Twilight 5:44 AM CST 6:38 PM CST
Astronomical Twilight 5:15 AM CST 7:06 PM CST
Moon 10:18 AM CST (2/16) No Moon Set
Length of Visible Light 11h 57m
Length of Day
11h 08m
Waxing Crescent, 39% of the Moon is Illuminated
Feb 16
Waxing Crescent
Feb 17
First Quarter
Feb 25
Full
Mar 4
Last Quarter
Mar 11
New

Hourly Weather History & Observations

Time (CST) Temp. Windchill Dew Point Humidity Pressure Visibility Wind Dir Wind Speed Gust Speed Precip Events Conditions
12:53 AM 48.9 °F - 35.1 °F 59% 30.15 in 10.0 mi NW 5.8 mph - N/A   Overcast
1:53 AM 48.9 °F - 33.1 °F 54% 30.15 in 10.0 mi NW 6.9 mph - N/A   Overcast
2:53 AM 48.0 °F - 32.0 °F 54% 30.16 in 10.0 mi NW 8.1 mph - N/A   Overcast
3:53 AM 46.9 °F - 30.0 °F 52% 30.16 in 10.0 mi NNW 8.1 mph - N/A   Mostly Cloudy
4:53 AM 45.0 °F 40.1 °F 28.9 °F 53% 30.17 in 10.0 mi NW 9.2 mph - N/A   Clear
5:53 AM 43.0 °F 36.4 °F 28.0 °F 56% 30.19 in 10.0 mi NW 12.7 mph 18.4 mph N/A   Clear
6:53 AM 42.1 °F 34.9 °F 26.1 °F 53% 30.23 in 10.0 mi NNW 13.8 mph 19.6 mph N/A   Clear
7:53 AM 42.1 °F 36.1 °F 28.0 °F 58% 30.25 in 10.0 mi NW 10.4 mph - N/A   Clear
8:53 AM 45.0 °F 38.9 °F 26.1 °F 48% 30.27 in 10.0 mi NNW 12.7 mph - N/A   Clear
9:53 AM 46.9 °F - 21.9 °F 37% 30.27 in 10.0 mi NNW 12.7 mph 24.2 mph N/A   Clear
10:53 AM 48.9 °F - 19.0 °F 31% 30.28 in 10.0 mi NW 17.3 mph 25.3 mph N/A   Clear
11:53 AM 50.0 °F - 19.0 °F 29% 30.25 in 10.0 mi NNW 11.5 mph 20.7 mph N/A   Clear
12:53 PM 52.0 °F - 17.1 °F 25% 30.22 in 10.0 mi NW 13.8 mph 23.0 mph N/A   Partly Cloudy
1:53 PM 51.1 °F - 12.9 °F 22% 30.21 in 10.0 mi NNW 13.8 mph 31.1 mph N/A   Clear
2:53 PM 52.0 °F - 14.0 °F 22% 30.20 in 10.0 mi NNW 17.3 mph 26.5 mph N/A   Clear
3:53 PM 50.0 °F - 14.0 °F 24% 30.20 in 10.0 mi NW 16.1 mph 27.6 mph N/A   Clear
4:53 PM 48.9 °F - 12.0 °F 23% 30.22 in 10.0 mi NW 13.8 mph 25.3 mph N/A   Clear
5:53 PM 46.0 °F 41.0 °F 15.1 °F 29% 30.23 in 10.0 mi NNW 10.4 mph - N/A   Clear
6:53 PM 43.0 °F 41.3 °F 19.0 °F 38% 30.25 in 10.0 mi North 3.5 mph - N/A   Clear
7:53 PM 37.9 °F - 23.0 °F 55% 30.28 in 10.0 mi Calm Calm - N/A   Clear
8:53 PM 34.0 °F - 27.0 °F 75% 30.30 in 10.0 mi Calm Calm - N/A   Clear
9:53 PM 33.1 °F - 26.1 °F 75% 30.31 in 10.0 mi Calm Calm - N/A   Clear
10:53 PM 36.0 °F 33.3 °F 23.0 °F 59% 30.32 in 10.0 mi NNW 3.5 mph - N/A   Clear
11:53 PM 32.0 °F - 25.0 °F 75% 30.32 in 10.0 mi Calm Calm - N/A   Clear